Timestamp[UTC];2m Lufttemperatur [degC] (tas);Stations-Luftdruck [Pa] (ps);relative Luftfeuchtigkeit [%] (hurs);spezifische Luftfeuchtigkeit [kg/kg] (huss);Niederschlagsmenge [mm] (pr);Windgeschwindigkeit in 2m [m/s] (sfcWind);Windrichtung [deg];maximale Windgeschwindigkeit [m/s] (wsgsmax);u-Windkomponente [m/s] (uas);v-Windkomponente [m/s] (vas);Sonneneinstrahlung [W/m2];Blitzrate [n];Blitzentfernung [km];Bodenfeuchte in 5cm Tiefe [vol%];Bodenfeuchte in 15cm Tiefe [vol%];Bodenfeuchte in 30cm Tiefe [vol%];Bodenfeuchte in 60cm Tiefe [vol%];Bodentemperatur in 5cm Tiefe [degC];Bodentemperatur in 15cm Tiefe [degC];Bodentemperatur in 30cm Tiefe [degC];Bodentemperatur in 60cm Tiefe [degC];Matrixpotential in 30cm Tiefe [kPa];Bodenfeuchte aus CRNS [vol%] (mrso);Neutronen Anzahl [N/h]
2024-01-01 00:00:00;8,6;99760;80;0,0056;0,0;3,7;217;7,1;-2,22;-2,99;0;0;nan;40,0;41,0;42,7;41,5;7,7;7,9;8,1;8,5;-7,6;29,0;1481
2024-01-01 01:00:00;8,0;99762;82;0,0055;0,54;4,5;230;9,9;-3,35;-2,78;0;0;nan;40,0;41,0;42,7;41,5;7,7;7,9;8,1;8,5;-7,6;29,4;1476
2024-01-01 02:00:00;6,4;99798;93;0,0056;0,81;3,7;232;7,9;-2,89;-2,25;0;0;nan;40,3;41,0;42,7;41,5;7,6;7,9;8,1;8,5;-7,6;29,5;1473
2024-01-01 03:00:00;6,9;99793;92;0,0057;0,0;4,0;234;7,5;-3,24;-2,34;0;0;nan;40,6;41,1;42,7;41,5;7,6;7,8;8,1;8,5;-7,6;29,7;1471
2024-01-01 04:00:00;7,5;99788;87;0,0056;0,0;4,5;239;7,4;-3,82;-2,31;0;0;nan;40,6;41,2;42,7;41,4;7,6;7,8;8,1;8,5;-7,6;29,8;1470
2024-01-01 05:00:00;7,7;99834;83;0,0055;0,0;4,8;236;8,6;-3,97;-2,64;0;0;nan;40,6;41,2;42,8;41,4;7,5;7,8;8,0;8,5;-7,5;29,4;1475
2024-01-01 06:00:00;6,9;99918;87;0,0054;0,0;4,5;234;8,6;-3,56;-2,58;0;0;nan;40,6;41,2;42,8;41,5;7,5;7,8;8,0;8,5;-7,5;29,5;1474
2024-01-01 07:00:00;6,9;99992;87;0,0054;0,0;4,3;239;8,0;-3,66;-2,2;1;0;nan;40,5;41,2;42,8;41,5;7,4;7,7;8,0;8,5;-7,5;29,3;1476
2024-01-01 08:00:00;6,9;100064;88;0,0054;0,0;3,9;237;7,6;-3,28;-2,17;6;0;nan;40,5;41,2;42,8;41,5;7,4;7,7;8,0;8,5;-7,5;29,2;1478
2024-01-01 09:00:00;7,1;100112;87;0,0055;0,0;4,1;241;7,9;-3,57;-1,96;38;0;nan;40,4;41,1;42,8;41,5;7,4;7,7;8,0;8,5;-7,5;29,8;1470
2024-01-01 10:00:00;7,7;100173;87;0,0057;0,0;4,2;242;8,5;-3,67;-1,98;109;0;nan;40,4;41,1;42,8;41,5;7,4;7,7;8,0;8,5;-7,5;29,9;1468
2024-01-01 11:00:00;8,1;100219;86;0,0058;0,0;4,0;250;7,4;-3,64;-1,33;128;0;nan;40,3;41,1;42,8;41,5;7,5;7,7;8,0;8,5;-7,5;29,7;1471
2024-01-01 12:00:00;8,3;100226;86;0,0059;0,0;4,0;251;7,9;-3,73;-1,31;129;0;nan;40,2;41,1;42,8;41,5;7,6;7,7;7,9;8,4;-7,5;29,6;1472
2024-01-01 13:00:00;8,2;100250;84;0,0057;0,0;4,0;246;7,5;-3,63;-1,63;71;0;nan;40,1;41,1;42,8;41,5;7,7;7,8;7,9;8,5;-7,5;30,1;1466
2024-01-01 14:00:00;7,9;100313;84;0,0055;0,0;3,9;250;7,1;-3,62;-1,29;17;0;nan;40,1;41,1;42,8;41,5;7,7;7,8;7,9;8,4;-7,5;30,5;1461
2024-01-01 15:00:00;7,4;100372;85;0,0054;0,0;3,0;249;6,1;-2,8;-1,1;3;0;nan;40,0;41,0;42,7;41,5;7,6;7,8;8,0;8,4;-7,6;29,9;1468
2024-01-01 16:00:00;7,1;100418;86;0,0054;0,0;3,1;238;6,0;-2,63;-1,66;0;0;nan;40,0;41,0;42,7;41,5;7,6;7,8;8,0;8,4;-7,6;30,1;1466
2024-01-01 17:00:00;7,1;100448;86;0,0054;0,0;2,9;241;5,0;-2,55;-1,39;0;0;nan;39,9;41,0;42,7;41,4;7,5;7,8;8,0;8,4;-7,6;30,5;1461
2024-01-01 18:00:00;7,3;100458;86;0,0054;0,0;2,6;221;4,7;-1,67;-1,92;0;0;nan;39,9;41,0;42,7;41,4;7,4;7,7;8,0;8,4;-7,6;30,9;1455
2024-01-01 19:00:00;7,4;100444;85;0,0054;0,0;2,9;229;5,0;-2,2;-1,88;0;0;nan;39,9;41,0;42,7;41,4;7,4;7,7;8,0;8,4;-7,6;31,9;1442
2024-01-01 20:00:00;6,7;100398;89;0,0054;0,17;2,4;203;5,3;-0,94;-2,18;0;0;nan;39,8;41,0;42,7;41,4;7,4;7,7;7,9;8,4;-7,6;32,5;1435
2024-01-01 21:00:00;6,3;100300;93;0,0055;0,02;1,5;162;2,8;0,46;-1,44;0;0;nan;39,8;41,0;42,7;41,4;7,4;7,6;7,9;8,4;-7,6;32,8;1432
2024-01-01 22:00:00;6,5;100197;93;0,0056;0,19;2,1;156;3,5;0,86;-1,9;0;0;nan;39,8;41,0;42,6;41,4;7,3;7,6;7,9;8,4;-7,6;32,6;1435
2024-01-01 23:00:00;6,4;100028;95;0,0057;0,23;2,3;147;3,9;1,24;-1,91;0;0;nan;39,8;41,0;42,6;41,4;7,3;7,6;7,9;8,4;-7,6;33,3;1426
2024-01-02 00:00:00;6,4;99915;96;0,0057;1,36;2,1;148;4,2;1,1;-1,79;0;0;nan;39,9;41,0;42,6;41,4;7,3;7,6;7,9;8,4;-7,6;33,5;1423
2024-01-02 01:00:00;6,2;99710;98;0,0058;2,74;2,3;138;4,4;1,5;-1,69;0;0;nan;40,7;41,1;42,7;41,4;7,3;7,6;7,9;8,4;-7,6;33,7;1422
2024-01-02 02:00:00;6,4;99468;100;0,006;1,67;3,0;156;5,6;1,23;-2,74;0;0;nan;42,6;41,5;42,8;41,4;7,3;7,6;7,9;8,4;-7,5;33,9;1419
2024-01-02 03:00:00;6,4;99269;100;0,006;3,04;3,3;159;5,5;1,14;-3,01;0;0;nan;43,8;42,1;43,2;41,4;7,3;7,6;7,9;8,4;-7,4;33,7;1421
2024-01-02 04:00:00;6,8;99094;99;0,0062;0,67;2,6;159;4,7;0,94;-2,41;0;0;nan;44,5;42,3;43,4;42,0;7,3;7,6;7,8;8,4;-7,4;33,8;1421
2024-01-02 05:00:00;8,7;99013;99;0,007;0,53;3,7;221;6,3;-2,3;-2,68;0;0;nan;44,4;42,3;43,4;41,9;7,4;7,6;7,8;8,4;-7,4;34,0;1418
2024-01-02 06:00:00;9,9;99018;99;0,0076;0,05;4,2;242;9,2;-3,69;-1,96;0;0;nan;44,0;42,3;43,4;41,9;7,4;7,6;7,8;8,4;-7,4;34,3;1415
2024-01-02 07:00:00;10,7;99062;98;0,008;0,11;4,0;248;6,8;-3,74;-1,48;0;0;nan;43,4;42,2;43,4;41,9;7,6;7,6;7,8;8,4;-7,4;34,3;1415
2024-01-02 08:00:00;10,8;99123;99;0,0081;0,17;2,8;247;5,2;-2,55;-1,06;10;0;nan;43,3;42,2;43,3;41,9;7,7;7,7;7,8;8,4;-7,4;34,7;1410
2024-01-02 09:00:00;11,0;99124;100;0,0082;0,35;2,9;237;4,8;-2,3;-1,5;27;0;nan;43,3;42,2;43,3;42,0;7,9;7,8;7,8;8,3;-7,4;34,0;1418
2024-01-02 10:00:00;11,1;99090;99;0,0082;0,02;2,9;223;5,7;-1,95;-2,1;37;0;nan;43,3;42,2;43,3;42,0;8,0;7,9;7,8;8,3;-7,4;33,4;1425
2024-01-02 11:00:00;10,5;99048;99;0,0079;0,78;3,8;222;6,8;-2,54;-2,81;30;0;nan;43,3;42,2;43,3;42,0;8,1;8,0;7,9;8,3;-7,4;33,8;1421
2024-01-02 12:00:00;9,7;98922;100;0,0076;1,45;3,0;200;5,7;-1,03;-2,85;22;0;nan;43,7;42,2;43,4;42,0;8,2;8,0;7,9;8,3;-7,4;33,8;1420
2024-01-02 13:00:00;9,6;98776;99;0,0075;1,04;3,6;203;7,0;-1,37;-3,3;23;0;nan;44,3;42,3;43,5;42,4;8,3;8,1;7,9;8,3;-7,3;33,6;1422
2024-01-02 14:00:00;10,3;98664;98;0,0077;0,23;3,5;211;6,4;-1,76;-2,95;15;0;nan;44,4;42,3;43,6;42,4;8,3;8,2;8,0;8,3;-7,3;33,3;1427
2024-01-02 15:00:00;10,2;98566;98;0,0077;0,92;3,9;209;7,5;-1,86;-3,42;2;0;nan;44,1;42,3;43,6;42,4;8,4;8,2;8,0;8,3;-7,3;33,6;1422
2024-01-02 16:00:00;10,2;98434;98;0,0077;1,03;4,0;204;7,9;-1,63;-3,64;0;0;nan;44,3;42,3;43,6;42,4;8,4;8,3;8,0;8,3;-7,3;33,9;1419
2024-01-02 17:00:00;10,5;98352;97;0,0079;0,46;4,5;220;8,6;-2,88;-3,48;0;0;nan;44,5;42,4;43,7;42,5;8,5;8,3;8,1;8,3;-7,3;33,4;1425
2024-01-02 18:00:00;11,0;98327;96;0,008;0,03;4,3;230;7,3;-3,31;-2,79;0;0;nan;44,2;42,3;43,7;42,5;8,5;8,4;8,1;8,3;-7,3;33,4;1425
2024-01-02 19:00:00;11,7;98341;94;0,0082;0,0;3,9;239;7,7;-3,36;-2,03;0;0;nan;43,7;42,3;43,6;42,5;8,6;8,4;8,1;8,3;-7,3;32,8;1432
2024-01-02 20:00:00;12,1;98382;85;0,0075;0,0;4,3;243;8,8;-3,76;-1,88;0;0;nan;43,5;42,2;43,5;42,5;8,6;8,5;8,2;8,3;-7,4;32,9;1430
2024-01-02 21:00:00;11,6;98429;83;0,0072;0,0;4,5;252;8,5;-4,3;-1,37;0;0;nan;43,4;42,2;43,4;42,4;8,6;8,5;8,2;8,3;-7,4;33,1;1429
2024-01-02 22:00:00;11,8;98460;78;0,0068;0,0;5,3;250;10,2;-4,97;-1,8;0;0;nan;43,3;42,2;43,4;42,4;8,6;8,5;8,2;8,3;-7,4;33,3;1426
2024-01-02 23:00:00;10,9;98544;81;0,0067;0,34;4,7;254;9,0;-4,49;-1,32;0;0;nan;43,3;42,1;43,4;42,3;8,5;8,5;8,3;8,3;-7,4;32,9;1431
2024-01-03 00:00:00;10,3;98622;83;0,0066;0,0;4,7;257;8,5;-4,56;-1,08;0;0;nan;43,3;42,1;43,3;42,3;8,5;8,5;8,3;8,3;-7,4;32,1;1441
2024-01-03 01:00:00;10,1;98671;85;0,0066;0,0;4,2;247;7,8;-3,85;-1,62;0;0;nan;43,3;42,1;43,3;42,1;8,5;8,5;8,3;8,3;-7,4;32,2;1439
2024-01-03 02:00:00;9,8;98712;87;0,0067;0,36;4,0;247;6,5;-3,66;-1,54;0;0;nan;43,2;42,0;43,3;42,0;8,5;8,5;8,3;8,4;-7,4;32,6;1434
2024-01-03 03:00:00;10,0;98751;85;0,0066;0,0;4,6;243;8,9;-4,08;-2,06;0;0;nan;43,3;42,1;43,3;42,0;8,4;8,5;8,3;8,4;-7,4;32,7;1433
2024-01-03 04:00:00;9,7;98777;87;0,0066;0,09;4,1;245;8,3;-3,7;-1,76;0;0;nan;43,2;42,0;43,3;42,0;8,4;8,5;8,3;8,4;-7,4;32,3;1438
2024-01-03 05:00:00;9,6;98799;87;0,0066;0,02;4,2;248;7,4;-3,84;-1,52;0;0;nan;43,2;42,0;43,3;42,0;8,4;8,5;8,3;8,4;-7,4;32,3;1438
2024-01-03 06:00:00;9,0;98794;93;0,0067;0,82;3,4;247;5,9;-3,12;-1,3;0;0;nan;43,2;42,0;43,3;42,0;8,4;8,5;8,3;8,4;-7,4;31,3;1450
2024-01-03 07:00:00;8,4;98772;98;0,0068;0,49;4,6;255;9,9;-4,37;-1,14;1;0;nan;43,6;42,1;43,3;42,0;8,4;8,4;8,3;8,4;-7,4;31,0;1455
2024-01-03 08:00:00;8,5;98832;94;0,0066;0,14;4,4;261;7,8;-4,29;-0,7;31;0;nan;43,8;42,2;43,3;42,0;8,4;8,4;8,3;8,4;-7,4;30,8;1457
2024-01-03 09:00:00;9,7;98883;89;0,0067;0,0;4,4;254;8,5;-4,15;-1,2;52;0;nan;43,7;42,2;43,3;42,0;8,4;8,4;8,3;8,4;-7,4;30,8;1457
2024-01-03 10:00:00;10,2;98932;88;0,0069;0,0;4,3;247;7,2;-3,92;-1,65;95;0;nan;43,6;42,2;43,4;42,0;8,4;8,4;8,3;8,4;-7,4;31,0;1454
2024-01-03 11:00:00;10,3;98928;86;0,0068;0,0;4,5;249;8,4;-4,24;-1,61;68;0;nan;43,4;42,1;43,4;42,0;8,5;8,5;8,3;8,4;-7,4;31,1;1453
2024-01-03 12:00:00;9,0;98904;92;0,0067;0,71;3,0;252;6,0;-2,82;-0,93;36;0;nan;43,3;42,1;43,4;42,0;8,6;8,5;8,4;8,4;-7,4;31,4;1449
2024-01-03 13:00:00;8,5;98876;98;0,0069;3,58;3,1;275;6,4;-3,06;0,27;30;0;nan;44,2;42,3;43,5;42,1;8,6;8,5;8,4;8,5;-7,4;31,5;1448
2024-01-03 14:00:00;8,8;98828;95;0,0068;0,03;2,2;245;3,7;-1,95;-0,93;30;0;nan;44,9;42,4;43,7;42,4;8,6;8,6;8,4;8,4;-7,2;31,9;1442
2024-01-03 15:00:00;9,3;98800;95;0,007;0,03;2,2;265;4,2;-1,83;-0,15;6;0;nan;44,2;42,4;43,6;42,4;8,6;8,6;8,4;8,5;-7,3;32,0;1442
2024-01-03 16:00:00;8,0;98784;100;0,0067;1,1;2,2;264;4,0;-2,09;-0,21;0;0;nan;44,2;42,4;43,6;42,4;8,6;8,6;8,4;8,5;-7,3;31,9;1443
2024-01-03 17:00:00;7,1;98821;100;0,0064;1,35;2,1;270;3,7;-2,04;-0,01;0;0;nan;44,7;42,4;43,8;42,4;8,5;8,6;8,4;8,5;-7,2;31,8;1444
2024-01-03 18:00:00;7,8;98831;99;0,0066;0,02;2,0;254;3,9;-1,89;-0,54;0;0;nan;44,5;42,4;43,8;42,4;8,4;8,5;8,4;8,5;-7,2;32,1;1441
2024-01-03 19:00:00;8,4;98885;98;0,0068;0,24;3,0;250;5,1;-2,83;-1,04;0;0;nan;44,0;42,4;43,8;42,4;8,4;8,5;8,4;8,5;-7,2;32,0;1441
2024-01-03 20:00:00;8,3;98914;99;0,0068;1,32;2,5;248;5,2;-2,34;-0,94;0;0;nan;44,2;42,4;43,6;42,4;8,4;8,5;8,4;8,5;-7,4;31,6;1446
2024-01-03 21:00:00;7,4;99000;100;0,0065;4,71;3,2;281;6,0;-2,74;0,53;0;0;nan;44,7;42,5;43,8;42,4;8,3;8,5;8,4;8,5;-7,2;31,7;1445
2024-01-03 22:00:00;7,0;99064;100;0,0063;1,42;3,0;279;5,4;-2,93;0,46;0;0;nan;45,6;42,8;43,8;42,6;8,3;8,5;8,4;8,5;-7,2;31,7;1446
2024-01-03 23:00:00;7,5;99137;100;0,0065;1,46;nan;nan;nan;nan;nan;0;0;nan;45,6;42,9;43,9;42,7;8,2;8,4;8,4;8,5;-7,2;31,5;1447
2024-01-04 00:00:00;7,6;99248;100;0,0066;0,0;2,6;269;5,1;-2,6;-0,06;0;0;nan;45,7;42,9;43,9;42,7;8,2;8,4;8,4;8,5;-7,2;31,9;1443
2024-01-04 01:00:00;8,1;99345;98;0,0067;0,02;3,3;271;5,9;-3,28;0,05;0;0;nan;45,5;42,9;43,9;42,7;8,2;8,4;8,4;8,5;-7,2;32,0;1442
2024-01-04 02:00:00;7,9;99495;99;0,0066;0,12;2,3;280;4,3;-2,28;0,4;0;0;nan;44,9;42,9;43,9;42,7;8,2;8,3;8,4;8,5;-7,2;31,5;1448
2024-01-04 03:00:00;7,9;99572;98;0,0066;0,0;2,6;266;5,1;-2,63;-0,19;0;0;nan;44,1;42,9;43,9;42,6;8,2;8,3;8,4;8,5;-7,2;31,6;1446
2024-01-04 04:00:00;7,7;99642;98;0,0065;0,02;2,7;259;5,5;-2,61;-0,52;0;0;nan;44,1;42,9;43,9;42,6;8,2;8,3;8,4;8,5;-7,2;32,2;1439
2024-01-04 05:00:00;7,6;99737;99;0,0065;0,46;2,7;256;5,2;-2,58;-0,65;0;0;nan;44,1;42,9;43,9;42,7;8,1;8,3;8,3;8,5;-7,2;32,2;1439
2024-01-04 06:00:00;7,3;99806;100;0,0064;0,02;2,4;259;4,8;-2,36;-0,44;0;0;nan;44,3;42,9;43,9;42,7;8,1;8,3;8,3;8,5;-7,2;32,6;1435
2024-01-04 07:00:00;7,3;99880;99;0,0064;0,14;2,6;256;4,5;-2,54;-0,62;0;0;nan;44,2;42,8;43,9;42,7;8,1;8,2;8,3;8,5;-7,2;32,4;1437
2024-01-04 08:00:00;7,6;99918;100;0,0065;0,0;2,4;257;4,4;-2,32;-0,55;16;0;nan;44,2;42,8;43,9;42,7;8,0;8,2;8,3;8,5;-7,2;32,5;1436
2024-01-04 09:00:00;7,8;99978;100;0,0066;0,0;2,5;263;5,4;-2,48;-0,3;55;0;nan;44,3;42,7;43,9;42,7;8,0;8,2;8,3;8,5;-7,1;32,6;1434
2024-01-04 10:00:00;7,4;100060;100;0,0064;0,79;2,5;265;4,3;-2,5;-0,24;28;0;nan;44,4;42,7;43,9;42,7;8,1;8,2;8,3;8,5;-7,1;32,3;1437
2024-01-04 11:00:00;7,3;100094;100;0,0064;1,86;2,7;274;4,8;-2,65;0,18;45;0;nan;44,8;42,8;43,9;42,7;8,1;8,2;8,3;8,5;-7,1;32,4;1436
2024-01-04 12:00:00;7,0;100105;100;0,0062;2,12;2,9;271;4,7;-2,84;0,05;44;0;nan;45,3;42,9;43,9;42,7;8,1;8,2;8,3;8,5;-7,1;32,5;1435
2024-01-04 13:00:00;7,5;100098;100;0,0065;0,0;2,2;271;3,5;-2,25;0,06;76;0;nan;45,3;42,9;43,9;42,7;8,2;8,2;8,3;8,5;-7,1;32,4;1437
2024-01-04 14:00:00;8,3;100113;100;0,0068;0,0;2,2;260;4,5;-2,19;-0,39;81;0;nan;44,7;42,9;43,9;42,7;8,2;8,3;8,3;8,5;-7,1;31,7;1445
2024-01-04 15:00:00;7,0;100182;98;0,0061;0,0;1,1;220;2,6;-0,65;-0,77;10;0;nan;44,4;42,8;43,9;42,8;8,2;8,3;8,3;8,5;-7,1;31,5;1447
2024-01-04 16:00:00;6,5;100213;95;0,0057;0,0;1,0;201;2,0;-0,34;-0,86;0;0;nan;44,2;42,7;44,0;42,8;8,1;8,3;8,3;8,5;-7,1;31,0;1455
2024-01-04 17:00:00;6,0;100212;94;0,0055;0,0;0,6;152;1,4;0,28;-0,54;0;0;nan;44,0;42,6;44,0;42,7;8,0;8,2;8,3;8,5;-7,1;30,7;1458
2024-01-04 18:00:00;6,3;100170;95;0,0057;0,0;1,0;142;1,7;0,62;-0,79;0;0;nan;43,9;42,5;44,0;42,7;7,9;8,2;8,3;8,5;-7,1;30,3;1463
2024-01-04 19:00:00;6,2;100144;95;0,0056;0,0;0,9;126;1,4;0,68;-0,49;0;0;nan;43,9;42,4;44,0;42,7;7,8;8,1;8,2;8,5;-7,1;30,1;1465
2024-01-04 20:00:00;6,5;100095;96;0,0058;0,0;1,4;120;2,3;1,18;-0,69;0;0;nan;43,8;42,4;44,0;42,7;7,7;8,0;8,2;8,5;-7,1;29,6;1472
2024-01-04 21:00:00;6,6;100017;95;0,0058;0,02;1,6;130;2,5;1,24;-1,03;0;0;nan;43,8;42,4;44,0;42,7;7,7;8,0;8,2;8,5;-7,1;29,4;1476
2024-01-04 22:00:00;6,4;99933;97;0,0058;1,13;2,0;117;3,3;1,74;-0,89;0;0;nan;43,9;42,4;44,0;42,6;7,7;8,0;8,2;8,5;-7,1;29,0;1481
2024-01-04 23:00:00;6,4;99827;99;0,0059;1,6;2,3;127;4,1;1,79;-1,34;0;0;nan;44,4;42,6;44,0;42,6;7,7;8,0;8,1;8,5;-7,1;28,8;1484
2024-01-05 00:00:00;6,5;99746;100;0,0061;0,0;2,4;129;3,9;1,81;-1,49;0;0;nan;44,4;42,6;44,0;42,6;7,7;7,9;8,1;8,5;-7,1;29,3;1477
2024-01-05 01:00:00;6,4;99693;100;0,006;0,02;1,7;126;3,1;1,41;-1,02;0;0;nan;44,3;42,6;44,0;42,6;7,7;7,9;8,1;8,5;-7,1;28,7;1485
2024-01-05 02:00:00;4,9;99622;100;0,0054;0,02;1,0;125;1,4;0,78;-0,55;0;0;nan;44,2;42,5;44,0;42,6;7,6;7,9;8,1;8,5;-7,1;28,8;1484
2024-01-05 03:00:00;5,6;99550;98;0,0056;0,0;1,8;142;2,7;1,07;-1,38;0;0;nan;44,1;42,4;43,9;42,6;7,5;7,9;8,1;8,4;-7,1;28,2;1493
2024-01-05 04:00:00;5,7;99485;99;0,0057;0,02;2,2;141;3,6;1,37;-1,69;0;0;nan;44,1;42,4;43,9;42,5;7,4;7,8;8,0;8,4;-7,1;27,6;1501
2024-01-05 05:00:00;5,8;99407;98;0,0057;0,02;2,1;141;3,3;1,33;-1,67;0;0;nan;44,0;42,3;43,7;42,5;7,3;7,7;8,0;8,4;-7,3;27,8;1499
2024-01-05 06:00:00;6,9;99399;95;0,0059;0,0;2,2;162;3,8;0,65;-2,01;0;0;nan;43,9;42,3;43,6;42,4;7,2;7,7;8,0;8,4;-7,3;27,6;1501
2024-01-05 07:00:00;7,9;99424;93;0,0062;0,0;3,4;201;5,7;-1,24;-3,15;1;0;nan;43,8;42,2;43,6;42,4;7,2;7,6;8,0;8,4;-7,3;28,0;1495
2024-01-05 08:00:00;8,0;99425;84;0,0056;0,0;3,7;209;6,4;-1,8;-3,22;11;0;nan;43,7;42,2;43,6;42,3;7,2;7,6;8,0;8,4;-7,3;28,1;1493
2024-01-05 09:00:00;7,9;99430;81;0,0054;0,0;3,9;218;7,2;-2,41;-3,07;41;0;nan;43,5;42,1;43,6;42,3;7,2;7,6;7,9;8,4;-7,3;28,2;1492
2024-01-05 10:00:00;7,7;99448;82;0,0054;0,0;4,5;220;7,9;-2,88;-3,39;33;0;nan;43,3;42,1;43,6;42,3;7,2;7,6;7,9;8,4;-7,3;28,3;1492
2024-01-05 11:00:00;7,4;99454;84;0,0054;0,0;3,7;227;7,5;-2,68;-2,54;43;0;nan;43,2;42,1;43,5;42,3;7,3;7,6;7,9;8,4;-7,3;27,8;1498
2024-01-05 12:00:00;7,4;99438;84;0,0054;0,0;4,4;220;8,6;-2,82;-3,39;21;0;nan;43,1;42,1;43,5;42,3;7,3;7,6;7,9;8,4;-7,3;27,5;1504
2024-01-05 13:00:00;7,3;99440;86;0,0055;0,0;4,1;223;7,2;-2,76;-3,0;22;0;nan;43,1;42,1;43,5;42,2;7,3;7,6;7,8;8,4;-7,3;27,3;1506
2024-01-05 14:00:00;6,9;99486;88;0,0055;0,0;3,6;216;6,5;-2,15;-2,92;14;0;nan;43,0;42,1;43,5;42,2;7,3;7,6;7,8;8,4;-7,3;27,3;1507
2024-01-05 15:00:00;6,9;99523;89;0,0056;0,19;3,9;228;7,0;-2,86;-2,59;4;0;nan;42,9;42,0;43,5;42,1;7,3;7,6;7,8;8,4;-7,3;27,2;1507
2024-01-05 16:00:00;6,3;99598;94;0,0056;1,04;3,7;239;7,1;-3,15;-1,88;0;0;nan;43,0;42,0;43,5;42,1;7,3;7,6;7,8;8,4;-7,3;27,7;1500
2024-01-05 17:00:00;6,2;99642;95;0,0056;0,02;3,2;247;6,4;-2,92;-1,27;0;0;nan;43,3;42,1;43,5;42,1;7,3;7,6;7,8;8,4;-7,3;27,8;1498
2024-01-05 18:00:00;6,0;99702;95;0,0056;0,04;2,5;254;4,9;-2,41;-0,71;0;0;nan;43,3;42,1;43,5;42,1;7,3;7,5;7,8;8,4;-7,3;27,8;1498
2024-01-05 19:00:00;6,1;99778;95;0,0056;0,0;2,6;244;5,0;-2,3;-1,12;0;0;nan;43,2;42,1;43,5;42,1;7,3;7,5;7,8;8,3;-7,3;27,9;1497
2024-01-05 20:00:00;nan;nan;nan;nan;0,0;nan;nan;nan;nan;nan;nan;0;nan;43,1;42,1;43,5;42,1;7,3;7,5;7,8;8,3;-7,3;28,3;1491
2024-01-05 21:00:00;nan;nan;nan;nan;0,0;nan;nan;nan;nan;nan;nan;0;nan;43,1;42,1;43,5;42,1;7,3;7,5;7,8;8,3;-7,3;27,9;1497
2024-01-05 22:00:00;nan;nan;nan;nan;0,0;nan;nan;nan;nan;nan;nan;0;nan;43,1;42,1;43,5;42,1;7,3;7,5;7,8;8,3;-7,3;28,4;1490
2024-01-05 23:00:00;nan;nan;nan;nan;0,0;nan;nan;nan;nan;nan;nan;0;nan;43,1;42,1;43,5;42,1;7,3;7,5;7,8;8,3;-7,3;28,6;1487
2024-01-06 00:00:00;nan;nan;nan;nan;0,0;nan;nan;nan;nan;nan;nan;0;nan;43,0;42,0;43,5;42,1;7,3;7,5;7,8;8,3;-7,3;27,3;1507
2024-01-06 01:00:00;nan;nan;nan;nan;0,0;nan;nan;nan;nan;nan;nan;0;nan;43,0;42,0;43,5;42,1;7,3;7,5;7,8;8,3;-7,3;27,6;1501
2024-01-06 02:00:00;nan;nan;nan;nan;0,0;nan;nan;nan;nan;nan;nan;0;nan;42,9;42,0;43,5;42,1;7,3;7,6;7,8;8,3;-7,3;27,2;1507
2024-01-06 03:00:00;nan;nan;nan;nan;0,0;nan;nan;nan;nan;nan;nan;0;nan;42,9;42,0;43,5;42,0;7,3;7,6;7,8;8,3;-7,3;29,3;1477
2024-01-06 04:00:00;nan;nan;nan;nan;0,0;nan;nan;nan;nan;nan;nan;0;nan;42,8;42,0;43,5;42,0;7,3;7,5;7,8;8,3;-7,3;30,9;1455
2024-01-06 05:00:00;nan;nan;nan;nan;0,0;nan;nan;nan;nan;nan;nan;0;nan;42,7;42,0;43,5;42,0;7,2;7,5;7,7;8,3;-7,3;30,1;1466
2024-01-06 06:00:00;nan;nan;nan;nan;0,0;nan;nan;nan;nan;nan;nan;0;nan;42,5;41,9;43,4;42,0;7,2;7,5;7,7;8,3;-7,3;33,3;1426
2024-01-06 07:00:00;nan;nan;nan;nan;0,0;nan;nan;nan;nan;nan;nan;0;nan;42,4;41,9;43,4;42,0;7,1;7,5;7,7;8,3;-7,3;35,5;1402
2024-01-06 08:00:00;nan;nan;nan;nan;0,0;nan;nan;nan;nan;nan;nan;0;nan;42,3;41,9;43,4;42,0;7,1;7,5;7,7;8,3;-7,3;nan;nan
2024-01-06 09:00:00;nan;nan;nan;nan;0,0;nan;nan;nan;nan;nan;nan;0;nan;42,1;41,9;43,4;42,0;7,0;7,4;7,7;8,3;-7,3;nan;nan
2024-01-06 10:00:00;nan;nan;nan;nan;0,0;nan;nan;nan;nan;nan;nan;0;nan;42,0;41,8;43,4;42,0;7,0;7,4;7,7;8,3;-7,3;nan;nan
2024-01-06 11:00:00;nan;nan;nan;nan;0,0;nan;nan;nan;nan;nan;nan;0;nan;41,9;41,8;43,4;42,0;7,0;7,3;7,7;8,3;-7,3;nan;nan
2024-01-06 12:00:00;nan;nan;nan;nan;0,0;nan;nan;nan;nan;nan;nan;0;nan;41,8;41,8;43,4;42,0;6,9;7,3;7,7;8,3;-7,3;nan;nan
2024-01-06 13:00:00;nan;nan;nan;nan;0,0;nan;nan;nan;nan;nan;nan;0;nan;41,7;41,7;43,4;42,0;6,9;7,3;7,7;8,3;-7,3;nan;nan
2024-01-06 14:00:00;nan;nan;nan;nan;0,0;nan;nan;nan;nan;nan;nan;0;nan;41,6;41,7;43,3;42,0;6,8;7,2;7,6;8,2;-7,3;nan;nan
2024-01-06 15:00:00;nan;nan;nan;nan;0,0;nan;nan;nan;nan;nan;nan;0;nan;41,6;41,7;43,3;41,9;6,7;7,2;7,6;8,2;-7,3;nan;nan
2024-01-06 16:00:00;nan;nan;nan;nan;0,0;nan;nan;nan;nan;nan;nan;0;nan;41,5;41,6;43,3;41,9;6,7;7,1;7,6;8,2;-7,3;nan;nan
2024-01-06 17:00:00;nan;nan;nan;nan;0,0;nan;nan;nan;nan;nan;nan;0;nan;41,4;41,6;43,3;41,9;6,6;7,1;7,6;8,2;-7,4;nan;nan
2024-01-06 18:00:00;nan;nan;nan;nan;0,0;nan;nan;nan;nan;nan;nan;0;nan;41,4;41,6;43,3;41,9;6,5;7,1;7,5;8,2;-7,4;nan;nan
2024-01-06 19:00:00;nan;nan;nan;nan;0,0;nan;nan;nan;nan;nan;nan;0;nan;41,3;41,6;43,2;41,9;6,5;7,0;7,5;8,2;-7,4;nan;nan
2024-01-06 20:00:00;nan;nan;nan;nan;0,0;nan;nan;nan;nan;nan;nan;0;nan;41,3;41,6;43,2;41,9;6,4;7,0;7,5;8,2;-7,4;nan;nan
2024-01-06 21:00:00;nan;nan;nan;nan;0,0;nan;nan;nan;nan;nan;nan;0;nan;41,2;41,6;43,2;41,9;6,3;6,9;7,5;8,2;-7,4;nan;nan
2024-01-06 22:00:00;nan;nan;nan;nan;0,0;nan;nan;nan;nan;nan;nan;0;nan;41,1;41,5;43,2;41,8;6,3;6,9;7,4;8,2;-7,4;nan;nan
2024-01-06 23:00:00;nan;nan;nan;nan;0,0;nan;nan;nan;nan;nan;nan;0;nan;41,1;41,5;43,2;41,8;6,2;6,8;7,4;8,2;-7,4;nan;nan
2024-01-07 00:00:00;nan;nan;nan;nan;0,0;nan;nan;nan;nan;nan;nan;0;nan;41,1;41,5;43,2;41,8;6,2;6,8;7,4;8,2;-7,4;nan;nan
2024-01-07 01:00:00;nan;nan;nan;nan;0,0;nan;nan;nan;nan;nan;nan;0;nan;41,0;41,5;43,2;41,8;6,1;6,7;7,3;8,1;-7,4;nan;nan
2024-01-07 02:00:00;nan;nan;nan;nan;0,0;nan;nan;nan;nan;nan;nan;0;nan;41,0;41,5;43,1;41,8;6,1;6,7;7,3;8,2;-7,4;nan;nan
2024-01-07 03:00:00;nan;nan;nan;nan;0,0;nan;nan;nan;nan;nan;nan;0;nan;40,9;41,4;43,1;41,8;6,1;6,6;7,3;8,1;-7,4;nan;nan
2024-01-07 04:00:00;nan;nan;nan;nan;0,0;nan;nan;nan;nan;nan;nan;0;nan;40,9;41,4;43,1;41,8;6,0;6,6;7,2;8,1;-7,4;nan;nan
2024-01-07 05:00:00;nan;nan;nan;nan;0,0;nan;nan;nan;nan;nan;nan;0;nan;40,9;41,4;43,1;41,8;6,0;6,6;7,2;8,1;-7,4;nan;nan
2024-01-07 06:00:00;nan;nan;nan;nan;0,0;nan;nan;nan;nan;nan;nan;0;nan;40,9;41,4;43,1;41,8;6,0;6,5;7,2;8,1;-7,4;nan;nan
2024-01-07 07:00:00;nan;nan;nan;nan;0,0;nan;nan;nan;nan;nan;nan;0;nan;40,8;41,4;43,0;41,8;5,9;6,5;7,1;8,1;-7,5;nan;nan
2024-01-07 08:00:00;nan;nan;nan;nan;0,0;nan;nan;nan;nan;nan;nan;0;nan;40,8;41,4;43,0;41,8;5,9;6,5;7,1;8,1;-7,5;nan;nan
2024-01-07 09:00:00;nan;nan;nan;nan;0,0;nan;nan;nan;nan;nan;nan;0;nan;40,8;41,3;43,0;41,8;5,8;6,4;7,1;8,0;-7,5;nan;nan
2024-01-07 10:00:00;nan;nan;nan;nan;0,0;nan;nan;nan;nan;nan;nan;0;nan;40,7;41,3;43,0;41,8;5,8;6,4;7,0;8,0;-7,5;nan;nan
2024-01-07 11:00:00;nan;nan;nan;nan;0,0;nan;nan;nan;nan;nan;nan;0;nan;40,7;41,3;43,0;41,8;5,7;6,3;7,0;8,0;-7,5;nan;nan
2024-01-07 12:00:00;nan;nan;nan;nan;0,0;nan;nan;nan;nan;nan;nan;0;nan;40,6;41,3;42,9;41,7;5,7;6,3;7,0;8,0;-7,5;nan;nan
2024-01-07 13:00:00;nan;nan;nan;nan;0,0;nan;nan;nan;nan;nan;nan;0;nan;40,6;41,3;42,9;41,7;5,7;6,3;6,9;8,0;-7,5;nan;nan
2024-01-07 14:00:00;nan;nan;nan;nan;0,0;nan;nan;nan;nan;nan;nan;0;nan;40,5;41,2;42,9;41,7;5,6;6,2;6,9;8,0;-7,5;nan;nan
2024-01-07 15:00:00;nan;nan;nan;nan;0,0;nan;nan;nan;nan;nan;nan;0;nan;40,5;41,2;42,9;41,7;5,6;6,2;6,9;8,0;-7,5;nan;nan
2024-01-07 16:00:00;nan;nan;nan;nan;0,0;nan;nan;nan;nan;nan;nan;0;nan;40,4;41,2;42,9;41,7;5,5;6,2;6,8;8,0;-7,5;nan;nan
2024-01-07 17:00:00;nan;nan;nan;nan;0,0;nan;nan;nan;nan;nan;nan;0;nan;40,4;41,2;42,9;41,7;5,4;6,1;6,8;7,9;-7,5;nan;nan
2024-01-07 18:00:00;nan;nan;nan;nan;0,0;nan;nan;nan;nan;nan;nan;0;nan;40,3;41,2;42,8;41,7;5,3;6,0;6,8;7,9;-7,5;nan;nan
2024-01-07 19:00:00;nan;nan;nan;nan;0,0;nan;nan;nan;nan;nan;nan;0;nan;40,3;41,2;42,8;41,7;5,2;5,9;6,7;7,9;-7,5;nan;nan
2024-01-07 20:00:00;nan;nan;nan;nan;0,0;nan;nan;nan;nan;nan;nan;0;nan;40,2;41,2;42,8;41,7;5,0;5,9;6,7;7,9;-7,5;nan;nan
2024-01-07 21:00:00;nan;nan;nan;nan;0,0;nan;nan;nan;nan;nan;nan;0;nan;40,2;41,1;42,8;41,7;4,9;5,8;6,6;7,9;-7,5;nan;nan
2024-01-07 22:00:00;nan;nan;nan;nan;0,0;nan;nan;nan;nan;nan;nan;0;nan;40,2;41,1;42,8;41,7;4,8;5,7;6,6;7,8;-7,5;nan;nan
2024-01-07 23:00:00;nan;nan;nan;nan;0,0;nan;nan;nan;nan;nan;nan;0;nan;40,2;41,1;42,7;41,7;4,7;5,6;6,6;7,8;-7,5;50,0;1286
2024-01-08 00:00:00;nan;nan;nan;nan;0,0;nan;nan;nan;nan;nan;nan;0;nan;40,2;41,1;42,7;41,7;4,6;5,5;6,5;7,8;-7,5;47,2;1304
2024-01-08 01:00:00;nan;nan;nan;nan;0,0;nan;nan;nan;nan;nan;nan;0;nan;40,2;41,1;42,7;41,6;4,5;5,4;6,4;7,8;-7,5;53,3;1267
2024-01-08 02:00:00;nan;nan;nan;nan;0,0;nan;nan;nan;nan;nan;nan;0;nan;40,1;41,1;42,7;41,6;4,4;5,4;6,4;7,8;-7,5;59,8;1235
2024-01-08 03:00:00;nan;nan;nan;nan;0,0;nan;nan;nan;nan;nan;nan;0;nan;40,1;41,0;42,7;41,6;4,4;5,3;6,3;7,7;-7,5;57,0;1248
2024-01-08 04:00:00;nan;nan;nan;nan;0,0;nan;nan;nan;nan;nan;nan;0;nan;40,1;41,0;42,7;41,6;4,3;5,2;6,3;7,7;-7,5;55,2;1257
2024-01-08 05:00:00;nan;nan;nan;nan;0,0;nan;nan;nan;nan;nan;nan;0;nan;40,1;41,0;42,7;41,6;4,3;5,1;6,2;7,7;-7,5;54,1;1263
2024-01-08 06:00:00;nan;nan;nan;nan;0,0;nan;nan;nan;nan;nan;nan;0;nan;40,1;41,0;42,7;41,6;4,2;5,1;6,2;7,7;-7,5;52,2;1273
2024-01-08 07:00:00;nan;nan;nan;nan;0,0;nan;nan;nan;nan;nan;nan;0;nan;40,0;41,0;42,7;41,6;4,2;5,0;6,1;7,6;-7,5;49,9;1287
2024-01-08 08:00:00;nan;nan;nan;nan;0,0;nan;nan;nan;nan;nan;nan;0;nan;40,0;41,0;42,6;41,6;4,1;5,0;6,1;7,6;-7,5;46,4;1309
2024-01-08 09:00:00;nan;nan;nan;nan;0,0;nan;nan;nan;nan;nan;nan;0;nan;40,0;41,0;42,6;41,6;4,1;4,9;6,0;7,6;-7,5;44,5;1323
2024-01-08 10:00:00;-1,2;102700;86;0,0029;0,0;1,4;42;3,6;0,94;1,04;178;0;nan;40,0;41,0;42,6;41,6;4,1;4,9;6,0;7,6;-7,5;43,1;1334
2024-01-08 11:00:00;-0,8;102668;80;0,0028;0,0;1,5;49;4,1;1,04;0,9;200;0;nan;39,9;41,0;42,6;41,6;4,1;4,9;5,9;7,5;-7,5;40,6;1354
2024-01-08 12:00:00;-0,8;102658;70;0,0024;0,0;1,7;77;6,5;1,6;0,37;178;0;nan;39,9;41,0;42,6;41,6;4,1;4,9;5,9;7,5;-7,6;40,3;1356
2024-01-08 13:00:00;-1,3;102672;65;0,0022;0,0;2,0;82;6,3;1,85;0,27;134;0;nan;39,8;40,9;42,6;41,5;4,1;4,8;5,8;7,5;-7,6;40,4;1356
2024-01-08 14:00:00;-1,4;102688;62;0,0021;0,0;1,5;78;3,9;1,34;0,29;78;0;nan;39,8;40,9;42,6;41,5;4,0;4,8;5,8;7,5;-7,6;38,8;1370
2024-01-08 15:00:00;-2,0;102732;62;0,002;0,0;1,2;66;4,3;1,12;0,5;17;0;nan;39,8;40,9;42,6;41,5;3,9;4,8;5,8;7,4;-7,6;38,2;1375
2024-01-08 16:00:00;-2,6;102800;64;0,002;0,0;1,2;64;4,1;1,12;0,54;0;0;nan;39,8;40,9;42,6;41,5;3,8;4,7;5,7;7,4;-7,6;38,2;1375